FW8825 Weather Reports


time (UTC)temp
C
wind
direction
speed
KPH
gust
KPH
rain 1hr
cm
rain 24hr
cm
rain mn
cm
humidity
%
barometer
mb
20260507122506 12 158 4.8 16.1 0.00 0.00 0.00 62 1016.9
20260507122006 12 147 6.4 16.1 0.00 0.00 0.00 63 1017.0
20260507121506 12 148 8.0 17.7 0.00 0.00 0.00 62 1016.9
20260507121005 12 138 8.0 17.7 0.00 0.00 0.00 62 1017.0
20260507120506 13 136 9.7 19.3 0.00 0.00 0.00 62 1016.9
20260507120006 13 147 9.7 19.3 0.00 0.00 0.00 61 1016.9
20260507115506 14 153 8.0 19.3 0.00 0.00 0.00 60 1016.9
20260507115006 14 153 8.0 20.9 0.00 0.00 0.00 58 1016.9
20260507114506 14 134 8.0 20.9 0.00 0.00 0.00 61 1016.9
20260507114006 13 124 8.0 20.9 0.00 0.00 0.00 60 1016.8
20260507113506 13 111 6.4 16.1 0.00 0.00 0.00 60 1016.9
20260507113006 13 129 4.8 17.7 0.00 0.00 0.00 60 1016.9
20260507112506 13 135 6.4 17.7 0.00 0.00 0.00 59 1016.9
20260507112006 13 141 6.4 16.1 0.00 0.00 0.00 61 1017.0
20260507111506 13 166 4.8 14.5 0.00 0.00 0.00 61 1016.9
20260507110505 13 124 6.4 12.9 0.00 0.00 0.00 57 1017.0
20260507110005 13 148 6.4 16.1 0.00 0.00 0.00 60 1017.0
20260507105006 13 177 6.4 14.5 0.00 0.00 0.00 62 1017.0
20260507104506 13 179 6.4 16.1 0.00 0.00 0.00 61 1016.9
20260507104006 12 166 6.4 16.1 0.00 0.00 0.00 61 1017.1
20260507103505 13 151 4.8 14.5 0.00 0.00 0.00 64 1017.0
20260507103005 12 120 6.4 12.9 0.00 0.00 0.00 63 1017.2
20260507102505 12 91 8.0 12.9 0.00 0.00 0.00 66 1017.1
20260507101507 12 136 8.0 20.9 0.00 0.00 0.00 65 1017.1
20260507101005 12 144 6.4 16.1 0.00 0.00 0.00 66 1017.2
20260507100506 12 139 6.4 16.1 0.00 0.00 0.00 66 1017.1
20260507100006 12 111 6.4 17.7 0.00 0.00 0.00 67 1017.2
20260507095506 12 108 8.0 17.7 0.00 0.00 0.00 67 1017.2
20260507095006 12 148 6.4 17.7 0.00 0.00 0.00 69 1017.2
20260507094505 12 156 6.4 17.7 0.00 0.00 0.00 67 1017.2
20260507093506 12 129 4.8 16.1 0.00 0.00 0.00 68 1017.1
20260507093006 12 110 4.8 12.9 0.00 0.00 0.00 69 1017.1
20260507092505 11 120 4.8 12.9 0.00 0.00 0.00 71 1017.1
20260507092006 11 122 4.8 12.9 0.00 0.00 0.00 71 1017.2
20260507091006 11 131 6.4 12.9 0.00 0.00 0.00 72 1017.2
20260507090505 11 138 4.8 12.9 0.00 0.00 0.00 71 1017.1
20260507090006 11 121 4.8 11.3 0.00 0.00 0.00 74 1017.2
20260507085506 11 117 4.8 12.9 0.00 0.00 0.00 74 1017.2
20260507085005 11 117 4.8 12.9 0.00 0.00 0.00 75 1017.1
20260507084505 10 125 4.8 12.9 0.00 0.00 0.00 75 1017.1
20260507083505 10 156 3.2 9.7 0.00 0.00 0.00 76 1017.2
20260507083006 10 120 3.2 11.3 0.00 0.00 0.00 78 1017.3
20260507082506 10 101 3.2 11.3 0.00 0.00 0.00 80 1017.4
20260507082005 10 112 3.2 8.0 0.00 0.00 0.00 79 1017.4
20260507081505 9 106 4.8 9.7 0.00 0.00 0.00 79 1017.3
20260507081005 9 101 4.8 9.7 0.00 0.00 0.00 80 1017.4
20260507080505 9 126 6.4 12.9 0.00 0.00 0.00 82 1017.3
20260507080006 8 165 6.4 12.9 0.00 0.00 0.00 83 1017.2
20260507075505 8 168 4.8 12.9 0.00 0.00 0.00 82 1017.2
20260507075005 8 152 6.4 12.9 0.00 0.00 0.00 82 1017.2
20260507074505 8 151 6.4 16.1 0.00 0.00 0.00 82 1017.1
20260507073505 8 161 4.8 12.9 0.00 0.00 0.00 82 1017.1
20260507073005 8 148 3.2 11.3 0.00 0.00 0.00 82 1017.0
20260507072505 8 132 3.2 11.3 0.00 0.00 0.00 82 1017.2
20260507071505 8 93 3.2 11.3 0.00 0.00 0.00 83 1017.0
20260507071005 8 93 3.2 6.4 0.00 0.00 0.00 82 1017.1
20260507070505 8 90 3.2 9.7 0.00 0.00 0.00 82 1017.1
20260507070009 8 87 3.2 9.7 0.00 0.00 0.00 83 1017.0
20260507065505 8 86 3.2 6.4 0.00 0.00 0.00 83 1017.0
20260507064505 8 86 3.2 8.0 0.00 0.00 0.00 83 1016.9
20260507063505 8 78 4.8 8.0 0.00 0.00 0.00 85 1016.9
20260507062505 7 83 4.8 11.3 0.00 0.00 0.00 85 1016.8
20260507062005 7 84 4.8 12.9 0.00 0.00 0.00 85 1016.8
20260507061505 7 82 4.8 12.9 0.00 0.00 0.00 85 1016.9
20260507061005 7 83 4.8 8.0 0.00 0.00 0.00 86 1016.6
20260507060505 7 79 3.2 11.3 0.00 0.00 0.00 86 1016.8
20260507055505 7 82 3.2 6.4 0.00 0.00 0.00 87 1016.7
20260507055005 7 82 1.6 6.4 0.00 0.00 0.00 87 1016.7
20260507054505 7 83 3.2 6.4 0.00 0.00 0.00 88 1016.7
20260507054005 7 83 3.2 4.8 0.00 0.00 0.00 88 1016.8
20260507053505 6 83 3.2 6.4 0.00 0.00 0.00 88 1016.7
20260507052505 6 83 3.2 6.4 0.00 0.00 0.00 89 1016.6
20260507051505 6 84 3.2 6.4 0.00 0.00 0.00 89 1016.5
20260507051005 6 77 3.2 6.4 0.00 0.00 0.00 89 1016.5
20260507050505 6 51 3.2 6.4 0.00 0.00 0.00 89 1016.6
20260507050006 6 27 3.2 6.4 0.00 0.00 0.00 89 1016.6
20260507045505 6 27 1.6 6.4 0.00 0.00 0.00 89 1016.5
20260507045005 6 27 1.6 4.8 0.00 0.00 0.00 89 1016.5
20260507044505 6 23 1.6 4.8 0.00 0.00 0.00 89 1016.4
20260507044005 6 22 1.6 4.8 0.00 0.00 0.00 89 1016.6
20260507043505 6 22 1.6 4.8 0.00 0.00 0.00 89 1016.5
20260507043005 6 22 1.6 3.2 0.00 0.00 0.00 89 1016.5
20260507042505 6 22 1.6 4.8 0.00 0.00 0.00 89 1016.5
20260507042005 6 22 3.2 4.8 0.00 0.00 0.00 89 1016.4
20260507041505 6 22 3.2 4.8 0.00 0.00 0.00 89 1016.5
20260507041005 6 22 3.2 4.8 0.00 0.00 0.00 89 1016.6
20260507040005 6 22 1.6 4.8 0.00 0.00 0.00 89 1016.6
20260507035505 6 22 1.6 4.8 0.00 0.00 0.00 89 1016.6
20260507035005 6 22 3.2 4.8 0.00 0.00 0.00 89 1016.6
20260507034505 6 22 3.2 4.8 0.00 0.00 0.00 89 1016.6
20260507034005 6 22 3.2 6.4 0.00 0.00 0.00 89 1016.6
20260507033505 6 22 4.8 6.4 0.00 0.00 0.00 89 1016.7
20260507033005 6 22 3.2 6.4 0.00 0.00 0.00 89 1016.6
20260507032504 6 22 3.2 6.4 0.00 0.00 0.00 89 1016.5
20260507032005 6 22 3.2 6.4 0.00 0.00 0.00 89 1016.6
20260507031505 6 22 3.2 4.8 0.00 0.00 0.00 89 1016.6
20260507031005 6 22 1.6 4.8 0.00 0.00 0.00 89 1016.6
20260507030505 6 22 1.6 4.8 0.00 0.00 0.00 89 1016.6
20260507030004 6 22 3.2 3.2 0.00 0.00 0.00 89 1016.6
20260507025005 6 22 1.6 4.8 0.00 0.00 0.00 89 1016.6
20260507024505 6 22 1.6 4.8 0.00 0.00 0.00 89 1016.6
20260507024004 6 22 1.6 3.2 0.00 0.00 0.00 89 1016.5
20260507023505 6 22 1.6 4.8 0.00 0.00 0.00 89 1016.7
20260507023005 6 22 3.2 4.8 0.00 0.00 0.00 89 1016.5
20260507022505 6 20 3.2 6.4 0.00 0.00 0.00 89 1016.5
20260507022004 6 343 3.2 6.4 0.00 0.00 0.00 89 1016.6
20260507021504 6 299 3.2 4.8 0.00 0.00 0.00 89 1016.5
20260507021004 5 299 3.2 4.8 0.00 0.00 0.00 89 1016.6
20260507020505 5 299 3.2 4.8 0.00 0.00 0.00 89 1016.7
20260507020005 5 299 3.2 4.8 0.00 0.00 0.00 89 1016.6
20260507015505 5 299 3.2 4.8 0.00 0.00 0.00 89 1016.6
20260507015004 5 302 4.8 6.4 0.00 0.00 0.00 89 1016.6
20260507014504 5 313 4.8 6.4 0.00 0.00 0.00 89 1016.5
20260507014004 5 322 3.2 6.4 0.00 0.00 0.00 88 1016.5
20260507013504 5 322 3.2 6.4 0.00 0.00 0.00 88 1016.4
20260507013004 5 322 4.8 8.0 0.00 0.00 0.00 88 1016.6
20260507012505 5 311 4.8 8.0 0.00 0.00 0.00 88 1016.5
20260507012005 5 301 3.2 8.0 0.00 0.00 0.00 88 1016.5
20260507011505 5 308 3.2 8.0 0.00 0.00 0.00 87 1016.6
20260507011005 5 318 3.2 6.4 0.00 0.00 0.00 88 1016.7
20260507010505 5 317 3.2 4.8 0.00 0.00 0.00 88 1016.7
20260507010005 6 317 3.2 4.8 0.00 0.00 0.00 88 1016.5
20260507005505 6 318 3.2 4.8 0.00 0.00 0.00 87 1016.6
20260507005004 6 317 4.8 6.4 0.00 0.00 0.00 87 1016.7
20260507004004 6 344 3.2 8.0 0.00 0.00 0.00 87 1016.7
20260507003505 6 56 4.8 9.7 0.00 0.00 0.00 87 1016.5
20260507003005 6 80 8.0 11.3 0.00 0.00 0.00 87 1016.4
20260507002505 6 90 9.7 17.7 0.00 0.00 0.00 87 1016.4
20260507002005 6 91 9.7 17.7 0.00 0.00 0.00 87 1016.4
20260507001504 6 92 11.3 20.9 0.00 0.00 0.00 87 1016.1
20260507000505 6 83 14.5 20.9 0.00 0.00 0.00 87 1016.3
20260507000005 6 81 12.9 20.9 0.00 0.00 0.00 87 1016.4
20260506235004 6 78 11.3 17.7 0.00 0.00 0.00 87 1016.4
20260506234505 6 80 11.3 17.7 0.00 0.00 0.00 87 1016.5
20260506234007 6 80 9.7 17.7 0.00 0.00 0.00 87 1016.5
20260506233508 6 78 8.0 17.7 0.00 0.00 0.00 87 1016.4
20260506233008 6 76 8.0 14.5 0.00 0.00 0.00 87 1016.4
20260506232507 6 77 8.0 16.1 0.00 0.00 0.00 87 1016.5
20260506232008 6 79 6.4 16.1 0.00 0.00 0.00 87 1016.6
20260506231507 6 69 6.4 11.3 0.00 0.00 0.00 87 1016.6
20260506231007 6 57 4.8 9.7 0.00 0.00 0.00 87 1016.6
20260506230009 6 35 4.8 6.4 0.00 0.00 0.00 87 1016.7
20260506224507 6 35 4.8 6.4 0.00 0.00 0.00 87 1016.7
20260506223507 6 40 4.8 8.0 0.00 0.00 0.00 86 1016.7
20260506223008 6 34 4.8 8.0 0.00 0.00 0.00 86 1016.7
20260506222508 6 30 4.8 8.0 0.00 0.00 0.00 86 1016.7
20260506222007 6 33 4.8 8.0 0.00 0.00 0.00 86 1016.7
20260506220507 6 38 8.0 16.1 0.00 0.00 0.00 86 1016.7
20260506220007 6 47 8.0 16.1 0.00 0.00 0.00 86 1016.7
20260506215507 6 57 8.0 11.3 0.00 0.00 0.00 86 1016.7
20260506215008 6 56 6.4 11.3 0.00 0.00 0.00 86 1016.6
20260506214507 6 51 6.4 11.3 0.00 0.00 0.00 86 1016.6
20260506213507 6 53 6.4 9.7 0.00 0.00 0.00 85 1016.7
20260506213007 6 60 6.4 11.3 0.00 0.00 0.00 85 1016.6
20260506212507 6 59 8.0 11.3 0.00 0.00 0.00 84 1016.6
20260506212007 6 65 8.0 14.5 0.00 0.00 0.00 84 1016.5
20260506211507 6 65 8.0 14.5 0.00 0.00 0.00 84 1016.5
20260506211007 6 63 8.0 14.5 0.00 0.00 0.00 84 1016.5
20260506210507 6 67 8.0 14.5 0.00 0.00 0.00 84 1016.4
20260506210007 6 64 8.0 17.7 0.00 0.00 0.00 84 1016.4
20260506205507 6 59 8.0 17.7 0.00 0.00 0.00 84 1016.3
20260506205007 6 52 9.7 14.5 0.00 0.00 0.00 84 1016.4
20260506204507 6 52 9.7 17.7 0.00 0.00 0.00 83 1016.3
20260506203507 6 52 9.7 16.1 0.00 0.00 0.00 83 1016.2
20260506203007 6 53 9.7 17.7 0.00 0.00 0.00 83 1016.1
20260506202507 6 57 9.7 17.7 0.00 0.00 0.00 83 1016.1
20260506202007 6 55 11.3 19.3 0.00 0.00 0.00 83 1016.1
20260506201507 6 46 11.3 19.3 0.00 0.00 0.00 83 1016.1
20260506200507 6 45 14.5 20.9 0.00 0.00 0.00 82 1016.0
20260506200007 6 51 12.9 22.5 0.00 0.00 0.00 82 1016.1
20260506195507 6 51 11.3 22.5 0.00 0.00 0.00 82 1016.0
20260506195006 6 51 9.7 20.9 0.00 0.00 0.00 82 1015.9
20260506194508 6 52 9.7 19.3 0.00 0.00 0.00 82 1015.9
20260506194007 6 51 11.3 20.9 0.00 0.00 0.00 82 1015.9
20260506193507 6 45 12.9 20.9 0.00 0.00 0.00 82 1015.9
20260506193007 7 45 12.9 19.3 0.00 0.00 0.00 82 1015.8
20260506192506 7 47 11.3 19.3 0.00 0.00 0.00 82 1015.8
20260506192007 7 46 9.7 19.3 0.00 0.00 0.00 82 1015.8
20260506191507 7 48 11.3 17.7 0.00 0.00 0.00 82 1015.8
20260506191007 7 56 11.3 19.3 0.00 0.00 0.00 81 1015.8
20260506190507 7 55 14.5 24.1 0.00 0.00 0.00 81 1015.8
20260506190007 7 49 14.5 25.7 0.00 0.00 0.00 81 1015.7
20260506185006 7 48 14.5 22.5 0.00 0.00 0.00 81 1015.8
20260506184507 7 40 14.5 22.5 0.00 0.00 0.00 81 1015.7
20260506184006 7 37 14.5 25.7 0.00 0.00 0.00 81 1015.7
20260506182507 7 34 14.5 24.1 0.00 0.00 0.00 81 1015.6
20260506182007 7 37 14.5 25.7 0.00 0.00 0.00 81 1015.5
20260506181507 7 38 14.5 25.7 0.00 0.00 0.00 81 1015.5
20260506181006 7 41 14.5 25.7 0.00 0.00 0.00 81 1015.5
20260506180507 7 39 14.5 22.5 0.00 0.00 0.00 80 1015.5
20260506180006 7 38 14.5 24.1 0.00 0.00 0.00 80 1015.5
20260506175507 7 37 14.5 25.7 0.00 0.00 0.00 80 1015.4
20260506175007 7 36 14.5 25.7 0.00 0.00 0.00 80 1015.4
20260506173508 7 42 17.7 25.7 0.00 0.00 0.00 79 1015.3
20260506172006 8 43 17.7 29.0 0.00 0.00 0.00 78 1015.2
20260506171507 8 38 16.1 27.4 0.00 0.00 0.00 77 1015.0
20260506170507 8 39 17.7 27.4 0.00 0.00 0.00 77 1015.1
20260506170006 8 42 16.1 27.4 0.00 0.00 0.00 76 1015.2
20260506165507 8 42 16.1 25.7 0.00 0.00 0.00 76 1015.0
20260506165006 8 44 16.1 25.7 0.00 0.00 0.00 75 1015.0
20260506164507 9 43 16.1 25.7 0.00 0.00 0.00 75 1014.9
20260506164006 9 40 16.1 27.4 0.00 0.00 0.00 74 1015.0
20260506163006 9 41 14.5 25.7 0.00 0.00 0.00 74 1014.9
20260506162507 9 46 14.5 22.5 0.00 0.00 0.00 73 1014.9
20260506162006 9 38 14.5 22.5 0.00 0.00 0.00 73 1014.9
20260506161506 9 37 14.5 24.1 0.00 0.00 0.00 72 1015.0
20260506160507 9 48 16.1 25.7 0.00 0.00 0.00 72 1014.9
20260506160007 9 50 14.5 25.7 0.00 0.00 0.00 72 1014.9
20260506155006 10 44 14.5 22.5 0.00 0.00 0.00 72 1014.9
20260506154506 10 38 16.1 20.9 0.00 0.00 0.00 72 1015.0
20260506154006 10 42 16.1 27.4 0.00 0.00 0.00 71 1014.9
20260506153506 10 33 14.5 27.4 0.00 0.00 0.00 71 1014.9
20260506153006 10 25 14.5 22.5 0.00 0.00 0.00 70 1014.9
20260506152506 10 36 16.1 22.5 0.00 0.00 0.00 70 1014.8
20260506152007 10 36 16.1 24.1 0.00 0.00 0.00 69 1014.9
20260506151006 10 28 14.5 24.1 0.00 0.00 0.00 68 1014.9
20260506150506 10 35 14.5 27.4 0.00 0.00 0.00 69 1014.8
20260506150007 10 35 16.1 27.4 0.00 0.00 0.00 68 1014.8
20260506145506 10 39 16.1 25.7 0.00 0.00 0.00 68 1014.8
20260506145006 10 45 16.1 25.7 0.00 0.00 0.00 67 1014.9
20260506144506 10 37 16.1 25.7 0.00 0.00 0.00 66 1014.7
20260506144006 10 28 17.7 22.5 0.00 0.00 0.00 66 1014.7
20260506143006 10 34 16.1 29.0 0.00 0.00 0.00 66 1014.7
20260506142506 10 48 14.5 27.4 0.00 0.00 0.00 65 1014.7
20260506142006 10 46 11.3 24.1 0.00 0.00 0.00 64 1014.7
20260506141506 11 32 11.3 20.9 0.00 0.00 0.00 62 1014.7
20260506141006 11 20 12.9 19.3 0.00 0.00 0.00 64 1014.7
20260506140506 11 14 12.9 20.9 0.00 0.00 0.00 63 1014.7
20260506140006 10 31 14.5 20.9 0.00 0.00 0.00 62 1014.9
20260506135506 10 44 14.5 24.1 0.00 0.00 0.00 63 1014.9
20260506135006 11 31 12.9 24.1 0.00 0.00 0.00 63 1014.7
20260506134506 11 17 12.9 24.1 0.00 0.00 0.00 64 1014.8
20260506134006 11 25 12.9 22.5 0.00 0.00 0.00 63 1014.9
20260506133506 11 20 12.9 22.5 0.00 0.00 0.00 63 1014.9
20260506133006 11 11 12.9 22.5 0.00 0.00 0.00 61 1014.8
20260506132506 11 20 12.9 22.5 0.00 0.00 0.00 62 1014.9
20260506132006 11 14 14.5 25.7 0.00 0.00 0.00 62 1014.9
20260506131506 11 10 14.5 25.7 0.00 0.00 0.00 60 1015.0
20260506131006 11 26 16.1 27.4 0.00 0.00 0.00 62 1015.0
20260506130506 10 24 17.7 27.4 0.00 0.00 0.00 61 1015.0
20260506130006 11 25 17.7 27.4 0.00 0.00 0.00 61 1015.0
20260506125505 11 31 17.7 29.0 0.00 0.00 0.00 62 1015.0
20260506125006 10 35 16.1 29.0 0.00 0.00 0.00 62 1015.0
20260506124506 11 34 14.5 27.4 0.00 0.00 0.00 62 1014.8
20260506124005 11 23 12.9 24.1 0.00 0.00 0.00 65 1014.9